Time,TemperatureF,DewpointF,PressureIn,WindDirection,WindDirectionDegrees,WindSpeedMPH,WindSpeedGustMPH,Humidity,HourlyPrecipIn,Conditions,Clouds,dailyrainin,SoftwareType,DateUTC
2013-07-19 00:04:00,74.7,43.6,30.03,NW,323,0.0,0.0,33,0.00,,,-99.99,Weather View 32 v60,2013-07-19 04:04:00,
2013-07-19 00:09:00,74.7,43.6,30.03,NW,323,0.0,0.0,33,0.00,,,-99.99,Weather View 32 v60,2013-07-19 04:09:00,
2013-07-19 00:14:00,74.5,44.2,30.03,NW,323,0.0,0.0,34,0.00,,,-99.99,Weather View 32 v60,2013-07-19 04:14:00,
2013-07-19 00:19:00,74.5,44.2,30.03,NW,323,0.0,0.0,34,0.00,,,-99.99,Weather View 32 v60,2013-07-19 04:19:00,
2013-07-19 00:24:00,74.3,44.0,30.03,NW,323,0.0,0.0,34,0.00,,,-99.99,Weather View 32 v60,2013-07-19 04:24:00,
2013-07-19 00:29:00,74.3,44.8,30.03,NW,323,0.0,0.0,35,0.00,,,-99.99,Weather View 32 v60,2013-07-19 04:29:00,
2013-07-19 00:34:00,74.3,44.8,30.03,NW,323,0.0,0.0,35,0.00,,,-99.99,Weather View 32 v60,2013-07-19 04:34:00,
2013-07-19 00:44:00,74.1,44.6,30.03,NW,323,0.0,0.0,35,0.00,,,-99.99,Weather View 32 v60,2013-07-19 04:44:00,
2013-07-19 00:49:00,74.1,44.6,30.03,NW,323,0.0,0.0,35,0.00,,,-99.99,Weather View 32 v60,2013-07-19 04:49:00,
2013-07-19 00:59:00,73.9,45.2,30.03,NW,323,0.0,0.0,36,0.00,,,-99.99,Weather View 32 v60,2013-07-19 04:59:00,
2013-07-19 01:04:00,73.9,45.2,30.03,NW,323,0.0,0.0,36,0.00,,,-99.99,Weather View 32 v60,2013-07-19 05:04:00,
2013-07-19 01:09:00,73.8,45.1,30.03,NW,323,0.0,0.0,36,0.00,,,-99.99,Weather View 32 v60,2013-07-19 05:09:00,
2013-07-19 01:19:00,73.8,45.1,30.03,NW,323,0.0,0.0,36,0.00,,,-99.99,Weather View 32 v60,2013-07-19 05:19:00,
2013-07-19 01:24:00,73.6,45.6,30.03,NW,323,0.0,0.0,37,0.00,,,-99.99,Weather View 32 v60,2013-07-19 05:24:00,
2013-07-19 01:29:00,73.6,45.6,30.03,NW,323,0.0,0.0,37,0.00,,,-99.99,Weather View 32 v60,2013-07-19 05:29:00,
2013-07-19 01:37:00,73.6,45.6,30.03,NW,323,0.0,0.0,37,0.00,,,-99.99,Weather View 32 v60,2013-07-19 05:37:00,
2013-07-19 01:44:00,73.6,46.3,30.03,NW,323,0.0,0.0,38,0.00,,,-99.99,Weather View 32 v60,2013-07-19 05:44:00,
2013-07-19 01:54:00,73.8,46.5,30.03,NW,323,0.0,0.0,38,0.00,,,-99.99,Weather View 32 v60,2013-07-19 05:54:00,
2013-07-19 01:59:00,73.8,46.5,30.03,NW,323,0.0,0.0,38,0.00,,,-99.99,Weather View 32 v60,2013-07-19 05:59:00,
2013-07-19 02:04:00,73.8,46.5,30.03,NW,323,0.0,0.0,38,0.00,,,-99.99,Weather View 32 v60,2013-07-19 06:04:00,
2013-07-19 02:09:00,73.6,46.3,30.03,NW,323,0.0,0.0,38,0.00,,,-99.99,Weather View 32 v60,2013-07-19 06:09:00,
2013-07-19 02:19:00,73.4,46.9,30.03,NW,323,0.0,0.0,39,0.00,,,-99.99,Weather View 32 v60,2013-07-19 06:19:00,
2013-07-19 02:24:00,73.4,46.9,30.00,NW,323,0.0,0.0,39,0.00,,,-99.99,Weather View 32 v60,2013-07-19 06:24:00,
2013-07-19 02:44:00,73.0,46.5,30.00,NW,323,0.0,0.0,39,0.00,,,-99.99,Weather View 32 v60,2013-07-19 06:44:00,
2013-07-19 02:49:00,72.9,47.1,30.00,NW,323,0.0,0.0,40,0.00,,,-99.99,Weather View 32 v60,2013-07-19 06:49:00,
2013-07-19 02:59:00,72.7,46.9,30.00,NW,323,0.0,0.0,40,0.00,,,-99.99,Weather View 32 v60,2013-07-19 06:59:00,
2013-07-19 03:04:00,72.7,46.9,30.00,NW,323,0.0,0.0,40,0.00,,,-99.99,Weather View 32 v60,2013-07-19 07:04:00,
2013-07-19 03:09:00,72.7,46.9,30.00,NW,323,0.0,0.0,40,0.00,,,-99.99,Weather View 32 v60,2013-07-19 07:09:00,
2013-07-19 03:19:00,72.5,47.4,30.00,NW,323,0.0,0.0,41,0.00,,,-99.99,Weather View 32 v60,2013-07-19 07:19:00,
2013-07-19 03:24:00,72.5,47.4,30.00,NW,323,0.0,0.0,41,0.00,,,-99.99,Weather View 32 v60,2013-07-19 07:24:00,
2013-07-19 03:34:00,72.5,47.4,30.00,NW,323,0.0,0.0,41,0.00,,,-99.99,Weather View 32 v60,2013-07-19 07:34:00,
2013-07-19 03:39:00,72.5,47.4,30.00,NW,323,0.0,0.0,41,0.00,,,-99.99,Weather View 32 v60,2013-07-19 07:39:00,
2013-07-19 03:45:00,72.5,48.0,30.00,NW,323,0.0,0.0,42,0.00,,,-99.99,Weather View 32 v60,2013-07-19 07:45:00,
2013-07-19 03:54:00,72.3,47.9,30.00,NW,323,0.0,0.0,42,0.00,,,-99.99,Weather View 32 v60,2013-07-19 07:54:00,
2013-07-19 04:04:00,72.1,47.7,30.00,NW,323,0.0,0.0,42,0.00,,,-99.99,Weather View 32 v60,2013-07-19 08:04:00,
2013-07-19 04:09:00,72.1,47.7,30.00,NW,323,0.0,0.0,42,0.00,,,-99.99,Weather View 32 v60,2013-07-19 08:09:00,
2013-07-19 04:14:00,72.0,47.6,30.00,NW,323,0.0,0.0,42,0.00,,,-99.99,Weather View 32 v60,2013-07-19 08:14:00,
2013-07-19 04:19:00,72.0,47.6,30.00,NW,323,0.0,0.0,42,0.00,,,-99.99,Weather View 32 v60,2013-07-19 08:19:00,
2013-07-19 04:29:00,71.8,47.4,30.00,NW,323,0.0,0.0,42,0.00,,,-99.99,Weather View 32 v60,2013-07-19 08:29:00,
2013-07-19 04:34:00,71.8,47.4,30.00,NW,323,0.0,0.0,42,0.00,,,-99.99,Weather View 32 v60,2013-07-19 08:34:00,
2013-07-19 04:39:00,71.6,47.2,30.00,NW,323,0.0,0.0,42,0.00,,,-99.99,Weather View 32 v60,2013-07-19 08:39:00,
2013-07-19 04:46:00,71.8,47.4,30.00,NW,323,0.0,0.0,42,0.00,,,-99.99,Weather View 32 v60,2013-07-19 08:46:00,
2013-07-19 04:54:00,71.8,48.0,30.00,NW,323,0.0,0.0,43,0.00,,,-99.99,Weather View 32 v60,2013-07-19 08:54:00,
2013-07-19 05:04:00,71.6,47.9,30.00,NW,323,0.0,0.0,43,0.00,,,-99.99,Weather View 32 v60,2013-07-19 09:04:00,
2013-07-19 05:14:00,71.6,47.9,30.00,NW,323,0.0,0.0,43,0.00,,,-99.99,Weather View 32 v60,2013-07-19 09:14:00,
2013-07-19 05:19:00,71.4,47.7,30.00,NW,323,0.0,0.0,43,0.00,,,-99.99,Weather View 32 v60,2013-07-19 09:19:00,
2013-07-19 05:24:00,71.4,47.7,30.00,NW,323,0.0,0.0,43,0.00,,,-99.99,Weather View 32 v60,2013-07-19 09:24:00,
2013-07-19 05:34:00,71.2,47.5,30.00,NW,323,0.0,0.0,43,0.00,,,-99.99,Weather View 32 v60,2013-07-19 09:34:00,
2013-07-19 05:39:00,71.2,47.5,30.00,NW,323,0.0,0.0,43,0.00,,,-99.99,Weather View 32 v60,2013-07-19 09:39:00,
2013-07-19 05:46:00,71.1,47.4,30.00,NW,323,0.0,0.0,43,0.00,,,-99.99,Weather View 32 v60,2013-07-19 09:46:00,
2013-07-19 05:54:00,71.1,47.4,30.00,NW,323,0.0,0.0,43,0.00,,,-99.99,Weather View 32 v60,2013-07-19 09:54:00,
2013-07-19 05:59:00,71.1,47.4,30.00,NW,323,0.0,0.0,43,0.00,,,-99.99,Weather View 32 v60,2013-07-19 09:59:00,
2013-07-19 06:09:00,70.9,47.2,30.00,NW,323,0.0,0.0,43,0.00,,,-99.99,Weather View 32 v60,2013-07-19 10:09:00,
2013-07-19 06:14:00,70.9,47.2,30.00,NW,323,0.0,0.0,43,0.00,,,-99.99,Weather View 32 v60,2013-07-19 10:14:00,
2013-07-19 06:19:00,70.9,47.8,30.00,NW,324,0.0,0.0,44,0.00,,,-99.99,Weather View 32 v60,2013-07-19 10:19:00,
2013-07-19 06:24:00,70.9,47.8,30.00,NW,323,0.0,0.0,44,0.00,,,-99.99,Weather View 32 v60,2013-07-19 10:24:00,
2013-07-19 06:34:00,70.9,47.8,30.00,NW,323,0.0,0.0,44,0.00,,,-99.99,Weather View 32 v60,2013-07-19 10:34:00,
2013-07-19 06:44:00,70.7,47.7,30.00,NW,323,0.0,0.0,44,0.00,,,-99.99,Weather View 32 v60,2013-07-19 10:44:00,
2013-07-19 06:49:00,70.7,47.7,30.00,NW,323,0.0,0.0,44,0.00,,,-99.99,Weather View 32 v60,2013-07-19 10:49:00,
2013-07-19 06:54:00,70.7,47.7,30.00,NW,323,0.0,0.0,44,0.00,,,-99.99,Weather View 32 v60,2013-07-19 10:54:00,
2013-07-19 07:04:00,70.7,47.7,30.00,NW,323,0.0,0.0,44,0.00,,,-99.99,Weather View 32 v60,2013-07-19 11:04:00,
2013-07-19 07:14:00,70.9,47.8,30.00,NW,323,0.0,0.0,44,0.00,,,-99.99,Weather View 32 v60,2013-07-19 11:14:00,
2013-07-19 07:19:00,70.9,47.8,30.00,NW,323,0.0,0.0,44,0.00,,,-99.99,Weather View 32 v60,2013-07-19 11:19:00,
2013-07-19 07:24:00,70.9,47.8,30.00,NW,323,0.0,0.0,44,0.00,,,-99.99,Weather View 32 v60,2013-07-19 11:24:00,
2013-07-19 07:29:00,70.9,48.4,30.00,NW,323,0.0,0.0,45,0.00,,,-99.99,Weather View 32 v60,2013-07-19 11:29:00,
2013-07-19 07:39:00,70.9,48.4,30.00,NW,323,0.0,0.0,45,0.00,,,-99.99,Weather View 32 v60,2013-07-19 11:39:00,
2013-07-19 07:44:00,71.1,48.6,30.00,NW,323,0.0,0.0,45,0.00,,,-99.99,Weather View 32 v60,2013-07-19 11:44:00,
2013-07-19 07:54:00,71.1,48.6,30.00,NW,323,0.0,0.0,45,0.00,,,-99.99,Weather View 32 v60,2013-07-19 11:54:00,
2013-07-19 08:04:00,71.4,48.9,30.00,NW,323,0.0,0.0,45,0.00,,,-99.99,Weather View 32 v60,2013-07-19 12:04:00,
2013-07-19 08:09:00,71.4,48.9,30.00,NW,323,0.0,0.0,45,0.00,,,-99.99,Weather View 32 v60,2013-07-19 12:09:00,
2013-07-19 08:14:00,71.6,49.1,30.00,NW,323,0.0,0.0,45,0.00,,,-99.99,Weather View 32 v60,2013-07-19 12:14:00,
2013-07-19 08:19:00,71.6,49.1,30.00,NW,323,0.0,0.0,45,0.00,,,-99.99,Weather View 32 v60,2013-07-19 12:19:00,
2013-07-19 08:24:00,71.8,49.8,30.00,NW,323,0.0,0.0,46,0.00,,,-99.99,Weather View 32 v60,2013-07-19 12:24:00,
2013-07-19 08:29:00,72.0,50.0,30.00,NW,323,0.0,0.0,46,0.00,,,-99.99,Weather View 32 v60,2013-07-19 12:29:00,
2013-07-19 08:39:00,72.3,50.3,30.03,NW,323,0.0,0.0,46,0.00,,,-99.99,Weather View 32 v60,2013-07-19 12:39:00,
2013-07-19 08:48:00,72.5,50.5,30.03,NW,323,0.0,0.0,46,0.00,,,-99.99,Weather View 32 v60,2013-07-19 12:48:00,
2013-07-19 08:54:00,72.9,50.8,30.03,NW,323,0.0,0.0,46,0.00,,,-99.99,Weather View 32 v60,2013-07-19 12:54:00,
2013-07-19 08:59:00,73.2,51.1,30.03,NW,323,0.0,0.0,46,0.00,,,-99.99,Weather View 32 v60,2013-07-19 12:59:00,
2013-07-19 09:09:00,73.8,51.6,30.03,NW,323,0.0,0.0,46,0.00,,,-99.99,Weather View 32 v60,2013-07-19 13:09:00,
2013-07-19 09:14:00,74.1,52.0,30.03,NW,323,0.0,0.0,46,0.00,,,-99.99,Weather View 32 v60,2013-07-19 13:14:00,
2013-07-19 09:19:00,74.3,52.1,30.03,NW,323,0.0,0.0,46,0.00,,,-99.99,Weather View 32 v60,2013-07-19 13:19:00,
2013-07-19 09:24:00,74.7,52.4,30.03,NW,323,0.0,0.0,46,0.00,,,-99.99,Weather View 32 v60,2013-07-19 13:24:00,
2013-07-19 09:29:00,75.0,52.8,30.03,NW,323,0.0,0.0,46,0.00,,,-99.99,Weather View 32 v60,2013-07-19 13:29:00,
2013-07-19 09:34:00,75.2,52.9,30.03,NW,323,0.0,0.0,46,0.00,,,-99.99,Weather View 32 v60,2013-07-19 13:34:00,
2013-07-19 09:39:00,75.4,53.1,30.03,NW,323,0.0,0.0,46,0.00,,,-99.99,Weather View 32 v60,2013-07-19 13:39:00,
2013-07-19 09:44:00,75.6,53.3,30.03,NW,323,0.0,0.0,46,0.00,,,-99.99,Weather View 32 v60,2013-07-19 13:44:00,
2013-07-19 09:54:00,76.1,53.8,30.03,NW,323,0.0,0.0,46,0.00,,,-99.99,Weather View 32 v60,2013-07-19 13:54:00,
2013-07-19 09:59:00,76.3,53.3,30.03,NW,323,0.0,0.0,45,0.00,,,-99.99,Weather View 32 v60,2013-07-19 13:59:00,
2013-07-19 10:09:00,77.0,54.0,30.03,NW,323,0.0,0.0,45,0.00,,,-99.99,Weather View 32 v60,2013-07-19 14:09:00,
2013-07-19 10:14:00,77.2,54.1,30.03,NW,323,0.0,0.0,45,0.00,,,-99.99,Weather View 32 v60,2013-07-19 14:14:00,
2013-07-19 10:24:00,78.1,54.9,30.03,NW,323,0.0,0.0,45,0.00,,,-99.99,Weather View 32 v60,2013-07-19 14:24:00,
2013-07-19 10:34:00,78.8,55.0,30.03,West,272,0.0,0.0,44,0.00,,,-99.99,Weather View 32 v60,2013-07-19 14:34:00,
2013-07-19 10:44:00,79.7,55.8,30.03,WSW,251,0.0,0.0,44,0.00,,,-99.99,Weather View 32 v60,2013-07-19 14:44:00,
2013-07-19 10:49:00,80.2,55.6,30.03,SE,124,0.0,0.0,43,0.00,,,-99.99,Weather View 32 v60,2013-07-19 14:49:00,
2013-07-19 11:00:00,80.6,55.3,30.03,SE,124,0.0,0.0,42,0.00,,,-99.99,Weather View 32 v60,2013-07-19 15:00:00,
2013-07-19 11:09:00,81.1,55.8,30.03,SE,124,0.0,0.0,42,0.00,,,-99.99,Weather View 32 v60,2013-07-19 15:09:00,
2013-07-19 11:14:00,81.1,55.1,30.03,SE,124,0.0,0.0,41,0.00,,,-99.99,Weather View 32 v60,2013-07-19 15:14:00,
2013-07-19 11:19:00,81.5,55.4,30.03,SE,124,0.0,0.0,41,0.00,,,-99.99,Weather View 32 v60,2013-07-19 15:19:00,
2013-07-19 11:29:00,81.0,53.6,30.03,SSW,204,0.0,4.0,39,0.00,,,-99.99,Weather View 32 v60,2013-07-19 15:29:00,
2013-07-19 11:39:00,82.6,55.0,30.03,NNE,25,0.0,4.0,39,0.00,,,-99.99,Weather View 32 v60,2013-07-19 15:39:00,
2013-07-19 11:44:00,82.8,54.5,30.03,NNE,25,0.0,4.0,38,0.00,,,-99.99,Weather View 32 v60,2013-07-19 15:44:00,
2013-07-19 11:49:00,83.3,54.2,30.03,West,267,3.0,5.0,37,0.00,,,-99.99,Weather View 32 v60,2013-07-19 15:49:00,
2013-07-19 11:59:00,83.8,52.4,30.03,West,266,4.0,5.0,34,0.00,,,-99.99,Weather View 32 v60,2013-07-19 15:59:00,
2013-07-19 12:04:00,84.4,52.9,30.03,West,267,0.0,5.0,34,0.00,,,-99.99,Weather View 32 v60,2013-07-19 16:04:00,
2013-07-19 12:09:00,84.9,52.5,30.03,West,277,4.0,5.0,33,0.00,,,-99.99,Weather View 32 v60,2013-07-19 16:09:00,
2013-07-19 12:14:00,85.1,51.0,30.03,WNW,295,4.0,5.0,31,0.00,,,-99.99,Weather View 32 v60,2013-07-19 16:14:00,
2013-07-19 12:24:00,86.5,51.3,30.00,WNW,301,4.0,5.0,30,0.00,,,-99.99,Weather View 32 v60,2013-07-19 16:24:00,
2013-07-19 12:29:00,86.2,49.1,30.00,ENE,73,0.0,5.0,28,0.00,,,-99.99,Weather View 32 v60,2013-07-19 16:29:00,
2013-07-19 12:34:00,86.2,49.1,30.00,ENE,73,0.0,5.0,28,0.00,,,-99.99,Weather View 32 v60,2013-07-19 16:34:00,
2013-07-19 12:44:00,87.3,49.1,30.00,East,95,0.0,5.0,27,0.00,,,-99.99,Weather View 32 v60,2013-07-19 16:44:00,
2013-07-19 12:51:00,87.8,47.5,30.00,ESE,111,3.0,5.0,25,0.00,,,-99.99,Weather View 32 v60,2013-07-19 16:51:00,
2013-07-19 12:59:00,88.0,44.2,30.00,East,91,0.0,5.0,22,0.00,,,-99.99,Weather View 32 v60,2013-07-19 16:59:00,
2013-07-19 13:04:00,88.3,43.3,30.00,NNE,14,3.0,5.0,21,0.00,,,-99.99,Weather View 32 v60,2013-07-19 17:04:00,
2013-07-19 13:09:00,88.5,43.5,30.00,SE,135,0.0,5.0,21,0.00,,,-99.99,Weather View 32 v60,2013-07-19 17:09:00,
2013-07-19 13:14:00,88.9,42.5,30.00,ESE,103,4.0,4.0,20,0.00,,,-99.99,Weather View 32 v60,2013-07-19 17:14:00,
2013-07-19 13:19:00,89.2,41.5,30.00,ESE,115,0.0,4.0,19,0.00,,,-99.99,Weather View 32 v60,2013-07-19 17:19:00,
2013-07-19 13:24:00,89.6,41.7,29.97,SSE,148,3.0,4.0,19,0.00,,,-99.99,Weather View 32 v60,2013-07-19 17:24:00,
2013-07-19 13:29:00,89.6,40.3,29.97,SE,132,0.0,4.0,18,0.00,,,-99.99,Weather View 32 v60,2013-07-19 17:29:00,
2013-07-19 13:39:00,89.6,40.3,29.97,East,95,4.0,4.0,18,0.00,,,-99.99,Weather View 32 v60,2013-07-19 17:39:00,
2013-07-19 13:49:00,90.0,39.2,29.97,SE,131,3.0,4.0,17,0.00,,,-99.99,Weather View 32 v60,2013-07-19 17:49:00,
2013-07-19 13:54:00,90.0,39.2,29.97,ESE,103,3.0,4.0,17,0.00,,,-99.99,Weather View 32 v60,2013-07-19 17:54:00,
2013-07-19 14:04:00,90.0,39.2,29.97,SW,231,3.0,5.0,17,0.00,,,-99.99,Weather View 32 v60,2013-07-19 18:04:00,
2013-07-19 14:09:00,90.0,39.2,29.97,SE,125,0.0,5.0,17,0.00,,,-99.99,Weather View 32 v60,2013-07-19 18:09:00,
2013-07-19 14:14:00,90.0,36.0,29.97,SSE,167,0.0,5.0,15,0.00,,,-99.99,Weather View 32 v60,2013-07-19 18:14:00,
2013-07-19 14:19:00,90.0,36.0,29.97,ESE,108,3.0,5.0,15,0.00,,,-99.99,Weather View 32 v60,2013-07-19 18:19:00,
2013-07-19 14:29:00,90.0,36.0,29.94,ESE,104,0.0,5.0,15,0.00,,,-99.99,Weather View 32 v60,2013-07-19 18:29:00,
2013-07-19 14:34:00,90.0,36.0,29.94,East,88,0.0,5.0,15,0.00,,,-99.99,Weather View 32 v60,2013-07-19 18:34:00,
2013-07-19 14:39:00,90.1,36.1,29.94,ESE,118,3.0,5.0,15,0.00,,,-99.99,Weather View 32 v60,2013-07-19 18:39:00,
2013-07-19 14:49:00,90.0,36.0,29.94,SE,129,0.0,5.0,15,0.00,,,-99.99,Weather View 32 v60,2013-07-19 18:49:00,
2013-07-19 15:00:00,89.8,30.3,29.94,ESE,121,0.0,4.0,12,0.00,,,-99.99,Weather View 32 v60,2013-07-19 19:00:00,
2013-07-19 15:09:00,89.6,30.1,29.94,ESE,113,0.0,4.0,12,0.00,,,-99.99,Weather View 32 v60,2013-07-19 19:09:00,
2013-07-19 15:14:00,89.6,30.1,29.94,East,92,3.0,4.0,12,0.00,,,-99.99,Weather View 32 v60,2013-07-19 19:14:00,
2013-07-19 15:24:00,89.2,29.8,29.94,ESE,120,0.0,4.0,12,0.00,,,-99.99,Weather View 32 v60,2013-07-19 19:24:00,
2013-07-19 15:34:00,89.1,29.7,29.94,ESE,113,3.0,4.0,12,0.00,,,-99.99,Weather View 32 v60,2013-07-19 19:34:00,
2013-07-19 15:39:00,89.1,29.7,29.94,ESE,119,0.0,4.0,12,0.00,,,-99.99,Weather View 32 v60,2013-07-19 19:39:00,
2013-07-19 15:44:00,89.1,29.7,29.94,ESE,120,0.0,4.0,12,0.00,,,-99.99,Weather View 32 v60,2013-07-19 19:44:00,
2013-07-19 15:49:00,88.7,31.4,29.94,SE,131,0.0,4.0,13,0.00,,,-99.99,Weather View 32 v60,2013-07-19 19:49:00,
2013-07-19 15:54:00,88.2,31.0,29.94,West,277,0.0,4.0,13,0.00,,,-99.99,Weather View 32 v60,2013-07-19 19:54:00,
2013-07-19 16:04:00,87.3,30.3,29.94,South,186,0.0,4.0,13,0.00,,,-99.99,Weather View 32 v60,2013-07-19 20:04:00,
2013-07-19 16:14:00,87.1,30.1,29.91,East,83,0.0,4.0,13,0.00,,,-99.99,Weather View 32 v60,2013-07-19 20:14:00,
2013-07-19 16:24:00,87.1,30.1,29.91,WNW,284,0.0,4.0,13,0.00,,,-99.99,Weather View 32 v60,2013-07-19 20:24:00,
2013-07-19 16:29:00,87.1,30.1,29.91,West,265,0.0,4.0,13,0.00,,,-99.99,Weather View 32 v60,2013-07-19 20:29:00,
2013-07-19 16:34:00,87.1,30.1,29.91,WSW,251,0.0,4.0,13,0.00,,,-99.99,Weather View 32 v60,2013-07-19 20:34:00,
2013-07-19 16:44:00,86.5,29.7,29.91,NW,316,0.0,4.0,13,0.00,,,-99.99,Weather View 32 v60,2013-07-19 20:44:00,
2013-07-19 16:49:00,86.4,29.6,29.91,WNW,284,3.0,5.0,13,0.00,,,-99.99,Weather View 32 v60,2013-07-19 20:49:00,
2013-07-19 17:00:00,84.7,28.3,29.91,SW,230,0.0,5.0,13,0.00,,,-99.99,Weather View 32 v60,2013-07-19 21:00:00,
2013-07-19 17:09:00,83.7,27.5,29.91,South,189,0.0,5.0,13,0.00,,,-99.99,Weather View 32 v60,2013-07-19 21:09:00,
2013-07-19 17:14:00,83.5,27.3,29.91,South,189,0.0,5.0,13,0.00,,,-99.99,Weather View 32 v60,2013-07-19 21:14:00,
2013-07-19 17:24:00,83.1,32.2,29.91,WSW,244,0.0,5.0,16,0.00,,,-99.99,Weather View 32 v60,2013-07-19 21:24:00,
2013-07-19 17:34:00,82.8,31.9,29.91,WSW,244,0.0,5.0,16,0.00,,,-99.99,Weather View 32 v60,2013-07-19 21:34:00,
2013-07-19 17:39:00,82.4,31.6,29.91,WSW,244,0.0,5.0,16,0.00,,,-99.99,Weather View 32 v60,2013-07-19 21:39:00,
2013-07-19 17:49:00,81.9,31.2,29.91,WSW,244,0.0,4.0,16,0.00,,,-99.99,Weather View 32 v60,2013-07-19 21:49:00,
2013-07-19 18:00:00,81.3,35.0,29.91,WSW,244,0.0,3.0,19,0.00,,,-99.99,Weather View 32 v60,2013-07-19 22:00:00,
2013-07-19 18:09:00,81.3,35.0,29.91,WSW,244,0.0,3.0,19,0.00,,,-99.99,Weather View 32 v60,2013-07-19 22:09:00,
2013-07-19 18:19:00,81.0,34.7,29.91,WSW,244,0.0,0.0,19,0.00,,,-99.99,Weather View 32 v60,2013-07-19 22:19:00,
2013-07-19 18:24:00,80.8,34.6,29.91,WSW,244,0.0,0.0,19,0.00,,,-99.99,Weather View 32 v60,2013-07-19 22:24:00,
2013-07-19 18:29:00,80.6,35.7,29.91,WSW,244,0.0,0.0,20,0.00,,,-99.99,Weather View 32 v60,2013-07-19 22:29:00,
2013-07-19 18:39:00,80.2,35.4,29.91,WSW,244,0.0,0.0,20,0.00,,,-99.99,Weather View 32 v60,2013-07-19 22:39:00,
2013-07-19 18:49:00,80.4,35.6,29.91,WSW,244,0.0,0.0,20,0.00,,,-99.99,Weather View 32 v60,2013-07-19 22:49:00,
2013-07-19 18:54:00,80.4,35.6,29.91,WSW,244,0.0,0.0,20,0.00,,,-99.99,Weather View 32 v60,2013-07-19 22:54:00,
2013-07-19 19:04:00,80.8,35.9,29.91,WSW,244,0.0,0.0,20,0.00,,,-99.99,Weather View 32 v60,2013-07-19 23:04:00,
2013-07-19 19:14:00,80.8,37.1,29.91,WSW,244,0.0,0.0,21,0.00,,,-99.99,Weather View 32 v60,2013-07-19 23:14:00,
2013-07-19 19:24:00,80.8,37.1,29.91,WSW,244,0.0,0.0,21,0.00,,,-99.99,Weather View 32 v60,2013-07-19 23:24:00,
2013-07-19 19:29:00,81.0,37.2,29.91,WSW,244,0.0,0.0,21,0.00,,,-99.99,Weather View 32 v60,2013-07-19 23:29:00,
2013-07-19 19:39:00,81.0,37.2,29.88,SSW,203,0.0,0.0,21,0.00,,,-99.99,Weather View 32 v60,2013-07-19 23:39:00,
2013-07-19 19:44:00,81.0,38.4,29.88,SSW,203,0.0,0.0,22,0.00,,,-99.99,Weather View 32 v60,2013-07-19 23:44:00,
2013-07-19 19:54:00,80.8,38.3,29.91,NNW,344,0.0,0.0,22,0.00,,,-99.99,Weather View 32 v60,2013-07-19 23:54:00,
2013-07-19 20:00:00,80.8,38.3,29.91,NNW,344,0.0,0.0,22,0.00,,,-99.99,Weather View 32 v60,2013-07-20 00:00:00,
2013-07-19 20:09:00,80.1,37.7,29.91,NNW,344,0.0,0.0,22,0.00,,,-99.99,Weather View 32 v60,2013-07-20 00:09:00,
2013-07-19 20:14:00,79.7,37.4,29.91,NNW,344,0.0,0.0,22,0.00,,,-99.99,Weather View 32 v60,2013-07-20 00:14:00,
2013-07-19 20:24:00,79.2,38.1,29.91,NNW,344,0.0,0.0,23,0.00,,,-99.99,Weather View 32 v60,2013-07-20 00:24:00,
2013-07-19 20:34:00,78.6,37.6,29.91,NNW,344,0.0,0.0,23,0.00,,,-99.99,Weather View 32 v60,2013-07-20 00:34:00,
2013-07-19 20:39:00,78.4,37.5,29.91,NNW,344,0.0,0.0,23,0.00,,,-99.99,Weather View 32 v60,2013-07-20 00:39:00,
2013-07-19 20:49:00,78.1,37.2,29.91,NNW,344,0.0,0.0,23,0.00,,,-99.99,Weather View 32 v60,2013-07-20 00:49:00,
2013-07-19 20:54:00,77.9,37.0,29.91,NNW,344,0.0,0.0,23,0.00,,,-99.99,Weather View 32 v60,2013-07-20 00:54:00,
2013-07-19 21:04:00,77.7,38.0,29.91,NNW,344,0.0,0.0,24,0.00,,,-99.99,Weather View 32 v60,2013-07-20 01:04:00,
2013-07-19 21:09:00,77.5,37.8,29.91,NNW,344,0.0,0.0,24,0.00,,,-99.99,Weather View 32 v60,2013-07-20 01:09:00,
2013-07-19 21:19:00,77.4,37.6,29.91,NNW,344,0.0,0.0,24,0.00,,,-99.99,Weather View 32 v60,2013-07-20 01:19:00,
2013-07-19 21:24:00,77.2,37.5,29.91,NNW,344,0.0,0.0,24,0.00,,,-99.99,Weather View 32 v60,2013-07-20 01:24:00,
2013-07-19 21:29:00,77.2,37.5,29.91,NNW,344,0.0,0.0,24,0.00,,,-99.99,Weather View 32 v60,2013-07-20 01:29:00,
2013-07-19 21:34:00,77.0,38.4,29.91,NNW,344,0.0,0.0,25,0.00,,,-99.99,Weather View 32 v60,2013-07-20 01:34:00,
2013-07-19 21:39:00,77.0,38.4,29.94,NNW,344,0.0,0.0,25,0.00,,,-99.99,Weather View 32 v60,2013-07-20 01:39:00,
2013-07-19 21:49:00,77.0,39.4,29.94,NNW,344,0.0,0.0,26,0.00,,,-99.99,Weather View 32 v60,2013-07-20 01:49:00,
2013-07-19 21:54:00,77.0,40.4,29.94,NNW,344,0.0,0.0,27,0.00,,,-99.99,Weather View 32 v60,2013-07-20 01:54:00,
2013-07-19 22:04:00,76.8,41.2,29.94,NNW,344,0.0,0.0,28,0.00,,,-99.99,Weather View 32 v60,2013-07-20 02:04:00,
2013-07-19 22:09:00,76.6,41.0,29.94,NNW,344,0.0,0.0,28,0.00,,,-99.99,Weather View 32 v60,2013-07-20 02:09:00,
2013-07-19 22:14:00,76.6,41.9,29.94,NNW,344,0.0,0.0,29,0.00,,,-99.99,Weather View 32 v60,2013-07-20 02:14:00,
2013-07-19 22:24:00,76.5,42.6,29.94,NNW,344,0.0,0.0,30,0.00,,,-99.99,Weather View 32 v60,2013-07-20 02:24:00,
2013-07-19 22:29:00,76.5,42.6,29.94,NNW,344,0.0,0.0,30,0.00,,,-99.99,Weather View 32 v60,2013-07-20 02:29:00,
2013-07-19 22:39:00,76.3,43.3,29.94,NNW,344,0.0,0.0,31,0.00,,,-99.99,Weather View 32 v60,2013-07-20 02:39:00,
2013-07-19 22:44:00,76.1,43.2,29.94,NNW,344,0.0,0.0,31,0.00,,,-99.99,Weather View 32 v60,2013-07-20 02:44:00,
2013-07-19 22:49:00,76.1,43.2,29.94,NNW,344,0.0,0.0,31,0.00,,,-99.99,Weather View 32 v60,2013-07-20 02:49:00,
2013-07-19 22:57:00,75.9,43.0,29.94,NNW,344,0.0,0.0,31,0.00,,,-99.99,Weather View 32 v60,2013-07-20 02:57:00,
2013-07-19 23:04:00,75.7,43.7,29.94,NNW,344,0.0,0.0,32,0.00,,,-99.99,Weather View 32 v60,2013-07-20 03:04:00,
2013-07-19 23:09:00,75.7,43.7,29.94,NNW,344,0.0,0.0,32,0.00,,,-99.99,Weather View 32 v60,2013-07-20 03:09:00,
2013-07-19 23:19:00,75.6,43.5,29.94,NNW,344,0.0,0.0,32,0.00,,,-99.99,Weather View 32 v60,2013-07-20 03:19:00,
2013-07-19 23:24:00,75.6,43.5,29.94,NNW,344,0.0,0.0,32,0.00,,,-99.99,Weather View 32 v60,2013-07-20 03:24:00,
2013-07-19 23:29:00,75.6,43.5,29.94,NNW,344,0.0,0.0,32,0.00,,,-99.99,Weather View 32 v60,2013-07-20 03:29:00,
2013-07-19 23:39:00,75.4,43.4,29.94,NNW,344,0.0,0.0,32,0.00,,,-99.99,Weather View 32 v60,2013-07-20 03:39:00,
2013-07-19 23:49:00,75.2,44.0,29.94,NNW,344,0.0,0.0,33,0.00,,,-99.99,Weather View 32 v60,2013-07-20 03:49:00,
2013-07-19 23:57:00,75.2,44.0,29.94,NNW,344,0.0,0.0,33,0.00,,,-99.99,Weather View 32 v60,2013-07-20 03:57:00,